Total_Precipitation_Accumulation
0.19 0.09 0.11 0.26 0.52 0.42 0.32 0.28 0.32 0.50 0.67 0.77 0.70 0.44 0.34 0.30 0.23 0.18 0.19 0.21 0.21 0.23 0.24 0.28 0.27 0.26 0.30 0.33 0.39 0.46 0.50 0.55 0.58 0.27 0.15 0.14 0.11 0.04 0.01 0.00 0.01 0.03 0.05
0.31 0.29 0.49 0.69 0.89 0.80 0.63 0.76 0.53 0.30 0.19 0.21 0.31 0.29 0.28 0.38 0.36 0.29 0.24 0.19 0.22 0.33 0.43 0.42 0.35 0.36 0.42 0.41 0.43 0.39 0.33 0.29 0.36 0.31 0.15 0.11 0.09 0.08 0.07 0.03 0.02 0.01 0.03
0.53 0.60 0.55 0.47 0.68 0.82 0.67 0.48 0.35 0.25 0.22 0.16 0.15 0.18 0.19 0.23 0.34 0.32 0.27 0.30 0.41 0.43 0.35 0.31 0.28 0.31 0.30 0.26 0.24 0.22 0.18 0.20 0.25 0.33 0.23 0.13 0.12 0.11 0.12 0.09 0.08 0.08 0.05
0.31 0.24 0.21 0.32 0.29 0.32 0.32 0.31 0.19 0.22 0.16 0.13 0.11 0.11 0.11 0.12 0.16 0.25 0.32 0.26 0.15 0.14 0.13 0.13 0.13 0.15 0.14 0.15 0.16 0.15 0.16 0.21 0.23 0.26 0.29 0.21 0.15 0.11 0.15 0.17 0.14 0.12 0.13
0.20 0.12 0.18 0.19 0.19 0.22 0.25 0.20 0.20 0.19 0.16 0.17 0.14 0.12 0.13 0.16 0.21 0.19 0.11 0.07 0.05 0.05 0.04 0.04 0.05 0.11 0.12 0.11 0.15 0.17 0.20 0.25 0.31 0.32 0.33 0.26 0.22 0.20 0.21 0.22 0.26 0.26 0.29
0.15 0.16 0.19 0.18 0.21 0.27 0.21 0.17 0.13 0.18 0.22 0.20 0.19 0.27 0.37 0.33 0.25 0.17 0.13 0.07 0.06 0.06 0.06 0.05 0.08 0.16 0.10 0.16 0.18 0.23 0.30 0.40 0.42 0.36 0.35 0.39 0.34 0.34 0.36 0.45 0.50 0.48 0.48
0.18 0.16 0.16 0.16 0.19 0.18 0.24 0.19 0.21 0.29 0.35 0.34 0.43 0.42 0.29 0.14 0.20 0.16 0.15 0.09 0.08 0.07 0.08 0.08 0.09 0.11 0.19 0.12 0.23 0.32 0.33 0.42 0.47 0.45 0.50 0.48 0.49 0.49 0.56 0.64 0.67 0.74 0.79
0.10 0.14 0.14 0.15 0.18 0.22 0.27 0.25 0.32 0.40 0.47 0.44 0.34 0.24 0.18 0.23 0.29 0.20 0.20 0.08 0.06 0.08 0.09 0.10 0.09 0.10 0.21 0.22 0.16 0.19 0.20 0.27 0.36 0.42 0.58 0.81 0.97 1.00 1.08 1.23 1.34 1.38 1.34
0.07 0.12 0.18 0.18 0.19 0.30 0.38 0.45 0.43 0.36 0.29 0.25 0.27 0.22 0.20 0.24 0.39 0.21 0.18 0.06 0.14 0.19 0.23 0.29 0.32 0.23 0.65 0.64 0.42 0.46 0.72 0.85 1.09 1.07 1.00 1.12 1.18 1.05 0.91 0.92 1.01 1.19 1.37
0.06 0.08 0.12 0.22 0.34 0.46 0.41 0.29 0.20 0.17 0.17 0.18 0.24 0.19 0.32 0.19 0.39 0.21 0.16 0.09 0.24 0.37 0.45 0.53 0.86 0.56 0.78 0.66 0.56 0.51 0.88 1.12 1.07 1.12 1.12 1.04 0.91 0.86 0.90 0.75 0.70 0.94 1.03
0.20 0.21 0.27 0.33 0.31 0.20 0.17 0.10 0.13 0.22 0.21 0.19 0.18 0.14 0.14 0.22 0.32 0.36 0.25 0.14 0.22 0.49 0.56 0.59 0.69 1.02 0.69 0.69 0.77 0.77 1.48 1.63 1.66 1.38 1.24 1.19 1.12 1.05 0.99 0.94 0.89 0.95 1.10
0.25 0.20 0.15 0.07 0.05 0.10 0.13 0.14 0.13 0.14 0.16 0.17 0.15 0.14 0.14 0.18 0.41 0.35 0.30 0.31 0.47 0.44 0.63 0.72 0.96 1.14 0.90 0.98 1.13 1.43 1.63 1.56 1.56 1.62 1.52 1.40 1.27 1.13 1.01 0.89 0.80 0.71 0.65
0.09 0.06 0.06 0.05 0.07 0.09 0.11 0.14 0.12 0.11 0.14 0.17 0.20 0.25 0.28 0.29 0.36 0.51 0.41 0.47 0.57 0.59 0.89 1.27 1.47 1.37 1.22 1.20 1.25 1.31 1.35 1.44 1.51 1.52 1.44 1.29 1.10 0.92 0.75 0.66 0.54 0.40 0.31
0.11 0.09 0.08 0.09 0.13 0.08 0.07 0.09 0.11 0.13 0.18 0.25 0.31 0.37 0.40 0.44 0.49 0.57 0.66 0.75 0.88 1.02 1.26 1.41 1.41 1.36 1.34 1.34 1.24 1.15 1.11 1.04 0.97 0.90 0.77 0.64 0.57 0.52 0.49 0.46 0.45 0.43 0.40
0.10 0.09 0.09 0.09 0.09 0.09 0.12 0.18 0.16 0.23 0.28 0.28 0.37 0.49 0.62 0.77 0.98 0.99 1.00 1.06 1.09 1.11 1.07 1.06 1.00 0.90 0.81 0.76 0.68 0.62 0.59 0.55 0.52 0.48 0.45 0.42 0.38 0.31 0.27 0.25 0.31 0.37 0.41
0.11 0.12 0.15 0.15 0.14 0.13 0.15 0.23 0.35 0.38 0.38 0.42 0.48 0.49 0.69 0.80 0.86 0.84 0.82 0.79 0.78 0.78 0.83 0.76 0.71 0.68 0.65 0.61 0.57 0.50 0.43 0.40 0.35 0.35 0.34 0.29 0.24 0.19 0.16 0.14 0.17 0.22 0.24
0.21 0.22 0.26 0.29 0.26 0.25 0.26 0.29 0.43 0.68 0.80 0.96 1.03 1.05 1.02 1.14 1.07 0.99 0.89 0.78 0.71 0.63 0.69 0.59 0.56 0.53 0.47 0.40 0.38 0.35 0.35 0.31 0.25 0.24 0.20 0.17 0.18 0.18 0.17 0.15 0.13 0.15 0.12
0.39 0.46 0.49 0.52 0.56 0.62 0.68 0.73 0.76 0.80 0.87 0.96 0.96 0.86 0.81 0.74 0.67 0.58 0.49 0.42 0.46 0.39 0.38 0.35 0.33 0.29 0.25 0.23 0.21 0.19 0.16 0.16 0.18 0.17 0.19 0.19 0.21 0.21 0.20 0.16 0.15 0.16 0.11
0.45 0.56 0.67 0.79 0.91 0.91 0.85 0.82 0.80 0.79 0.80 0.80 0.73 0.65 0.63 0.54 0.44 0.39 0.34 0.43 0.39 0.33 0.27 0.25 0.23 0.22 0.19 0.17 0.17 0.19 0.20 0.20 0.20 0.21 0.19 0.20 0.20 0.22 0.20 0.18 0.19 0.17 0.16
0.80 0.96 0.94 0.94 0.94 0.88 0.81 0.73 0.68 0.64 0.61 0.58 0.55 0.54 0.44 0.32 0.31 0.27 0.25 0.26 0.28 0.25 0.19 0.18 0.16 0.16 0.17 0.19 0.18 0.19 0.17 0.15 0.17 0.19 0.20 0.19 0.18 0.21 0.23 0.20 0.17 0.17 0.13
0.74 0.73 0.67 0.60 0.57 0.55 0.50 0.45 0.40 0.37 0.35 0.31 0.31 0.27 0.21 0.23 0.25 0.22 0.20 0.20 0.20 0.20 0.21 0.21 0.18 0.16 0.15 0.14 0.15 0.15 0.15 0.14 0.16 0.17 0.17 0.17 0.21 0.21 0.17 0.17 0.16 0.15 0.12
0.46 0.42 0.36 0.34 0.34 0.32 0.28 0.23 0.23 0.23 0.23 0.22 0.20 0.17 0.16 0.19 0.19 0.20 0.23 0.25 0.23 0.23 0.23 0.22 0.17 0.16 0.16 0.18 0.17 0.19 0.15 0.12 0.12 0.14 0.15 0.13 0.13 0.13 0.14 0.15 0.15 0.15 0.14
0.25 0.24 0.22 0.21 0.20 0.18 0.17 0.17 0.22 0.25 0.27 0.29 0.30 0.26 0.21 0.26 0.27 0.24 0.25 0.23 0.23 0.23 0.19 0.20 0.20 0.17 0.15 0.16 0.18 0.21 0.20 0.13 0.13 0.17 0.19 0.16 0.12 0.12 0.12 0.14 0.14 0.16 0.16
0.13 0.15 0.15 0.16 0.18 0.23 0.27 0.27 0.26 0.26 0.28 0.28 0.23 0.22 0.22 0.20 0.21 0.21 0.20 0.19 0.20 0.21 0.24 0.27 0.27 0.25 0.22 0.21 0.22 0.21 0.19 0.18 0.24 0.24 0.24 0.20 0.13 0.11 0.14 0.14 0.12 0.13 0.15
0.17 0.20 0.23 0.26 0.27 0.24 0.22 0.22 0.25 0.24 0.22 0.20 0.19 0.17 0.15 0.14 0.12 0.11 0.10 0.10 0.11 0.11 0.11 0.11 0.12 0.13 0.13 0.15 0.18 0.16 0.16 0.19 0.22 0.22 0.30 0.28 0.21 0.16 0.15 0.15 0.15 0.16 0.15
0.13 0.16 0.16 0.15 0.18 0.22 0.25 0.23 0.20 0.19 0.18 0.16 0.15 0.15 0.14 0.12 0.10 0.09 0.07 0.07 0.08 0.07 0.07 0.08 0.09 0.08 0.09 0.11 0.12 0.16 0.13 0.13 0.19 0.24 0.31 0.32 0.27 0.23 0.22 0.21 0.18 0.19 0.15